Live-Position
3D-Globus wird geladen...
Über Starlink 6208
Group: 3 satellites
Beschreibung wird geladen...
Nächste Überflüge
Passes for default location (London). Set your location on the main map for personalized predictions.
Höhenverlauf
Loading altitude history...
No altitude history available
Zweizeiliger Elementsatz
1 56895U 23083V 26126.25002315 -.00008329 00000-0 -29366-3 0 9997
2 56895 43.0030 123.8930 0001380 264.9335 299.2621 15.27559362 5804
Epoch: 6. Mai 2026 •
Age: 7 hours
Aktueller Status
Höhe 495.5 km
Geschwindigkeit 7.62 km/s
Subsatellitenpunkt -42.98°S,
26.64°W
Startdatum 12. Juni 2023
Alter 2.8 years
Typ internet
Startgruppe
Falcon 9 •
Group 5-11 •
51 satellites
Starlink 6206
56876
Starlink 6209 56877
Starlink 6182 56878
Starlink 5707 56879
Starlink 6177 56880
Starlink 5853 56881
Starlink 6175 56882
Starlink 6171 56883
Starlink 5515 56884
Starlink 5095 56885
Starlink 5496 56886
Starlink 6180 56887
Starlink 6181 56888
Starlink 6169 56889
Starlink 5528 56890
Starlink 6213 56891
Starlink 6219 56892
Starlink 6216 56893
Starlink 6144 56894
Starlink 6202 56896
...and 30 more
Technische Details
Klassifizierung Payload
Masse 305.00 kg
Trockenmasse 290.00 kg
Gesamtmasse 305.00 kg
Länge 0.20 m
Durchmesser 2.80 m
Spannweite 9.00 m
Form Box + pan
Hersteller SPXS
Bus-Typ Starlink
Phasenstatus In Orbit
Besitzer/Staat SPXS/US
Most Searched
Loading...